SCP
0 0 0 0 0 0 0 0 0 0 0 0 0 0 0 0 0 0 0 0 0 0
0 0 0 0 0 0 0 0 0 0 0 0 0 0 0 0 0 0 0 0 0 0
0 0 0 0 0 0 0 0 0 0 0 0 0 0 0 0 0 0 0 0 0 0
0 0 0 0 0 0 0 0 0 0 0 0 0 0 0 0 0 0 0 0 0 0
0 0 0 0 0 0 0 0 0 0 0 0 0 0 0 0 0 0 0 0 0 0
0 0 0 0 0 0 0 0 0 0 0 0 0 0 0 0 0 0 0 0 0 0
0 0 0 0 0 0 0 0 0 0 0 0 0 0 0 0 0 0 0 0 0 0
0 0 0 0 0 0 0 0 0 0 0 0 0 0 0 0 0 0 0 0 0 0
0 0 0 0 0 0 0 0 0 0 0 0 0 0 0 0 0 0 0 0 0 0
0 0 0 0 0 0 0 0 0 0 0 0 0 0 0 0 0 0 0 0 0 0
0 0 0 0 0 0 0 0 0 0 0 0 0 0 0 0 0 0 0 0 0 0
0 0 0 0 0 0 0 0 0 0 0 0 0 0 0 0 0 0 0 0 0 0
0 0 0 0 0 0 0 0 0 0 0 0 0 0 0 0 0 0 0 0 0 0
0 0 0 0 0 0 0 0 0 0 0 0 0 0 0 0 0 0 0 0 0 0
Wind_Speed_500mb
94 91 90 87 85 82 80 72 64 63 58 56 57 58 58 57 58 58 57 55 51 51
98 98 99 93 89 85 78 70 66 63 59 57 60 58 58 61 60 55 54 53 48 53
105 102 97 95 94 92 85 78 71 68 63 63 60 61 61 60 59 56 57 53 53 55
106 103 94 91 89 90 83 79 77 73 67 65 63 62 60 59 57 56 54 56 54 50
100 106 102 95 89 84 80 80 77 71 68 67 65 62 58 55 57 53 50 47 47 48
93 99 103 97 87 81 80 74 72 72 71 69 65 61 56 55 51 49 47 47 45 46
87 89 94 93 88 87 80 75 75 72 69 65 63 56 53 51 51 52 51 50 48 47
84 85 87 90 91 87 81 76 73 70 67 63 56 55 52 50 49 47 47 45 44 47
80 81 86 89 89 84 78 76 73 68 63 59 55 52 49 46 46 45 47 44 44 45
82 86 86 86 82 81 80 74 69 63 59 57 53 50 47 46 46 46 47 44 43 45
89 87 86 85 84 82 78 72 66 62 60 57 54 52 52 50 47 44 42 40 39 41
80 81 86 88 87 84 78 73 68 63 61 59 58 58 55 50 45 41 40 38 37 33
89 89 93 92 87 83 78 71 67 64 62 61 60 57 53 50 45 42 40 37 34 31
94 95 95 93 89 84 78 73 68 66 64 63 60 57 55 51 48 44 39 35 34 34
Wind_Direction_500mb
243 243 244 244 245 247 247 249 248 247 245 243 244 247 252 255 258 259 262 265 265 269
243 244 244 245 247 246 247 246 246 244 242 241 243 247 252 256 259 261 265 264 266 273
246 247 247 245 246 244 245 246 243 243 242 243 245 250 252 254 259 260 261 263 264 263
246 244 243 244 244 241 243 244 244 242 242 245 249 250 249 252 255 255 256 259 259 262
246 244 242 242 240 240 241 242 243 241 242 245 246 247 249 250 251 251 252 257 257 259
243 242 240 239 237 236 239 238 238 238 239 240 242 243 246 246 248 246 245 248 248 247
241 240 239 236 232 234 236 236 237 236 236 237 238 240 241 244 245 247 248 247 254 256
242 240 236 229 229 231 234 234 232 230 229 232 234 237 240 242 244 248 252 255 259 263
241 233 226 227 226 229 228 225 225 223 224 228 232 235 238 241 244 247 249 251 254 259
234 226 225 224 227 225 222 220 220 223 226 229 232 235 238 241 245 247 249 250 253 255
236 231 230 225 220 218 217 218 221 223 226 229 232 235 237 239 241 242 246 250 249 249
237 233 227 222 218 214 214 217 219 223 228 231 232 235 236 237 238 241 240 240 240 240
238 233 228 220 214 216 218 219 223 226 228 230 230 231 233 235 236 234 234 237 237 236
238 230 221 217 217 218 219 220 222 225 227 228 228 228 231 234 232 230 233 234 232 229
Wind_Speed_850mb
94 91 90 87 85 82 80 72 64 63 58 56 57 58 58 57 58 58 57 55 51 51
98 98 99 93 89 85 78 70 66 63 59 57 60 58 58 61 60 55 54 53 48 53
105 102 97 95 94 92 85 78 71 68 63 63 60 61 61 60 59 56 57 53 53 55
106 103 94 91 89 90 83 79 77 73 67 65 63 62 60 59 57 56 54 56 54 50
100 106 102 95 89 84 80 80 77 71 68 67 65 62 58 55 57 53 50 47 47 48
93 99 103 97 87 81 80 74 72 72 71 69 65 61 56 55 51 49 47 47 45 46
87 89 94 93 88 87 80 75 75 72 69 65 63 56 53 51 51 52 51 50 48 47
84 85 87 90 91 87 81 76 73 70 67 63 56 55 52 50 49 47 47 45 44 47
80 81 86 89 89 84 78 76 73 68 63 59 55 52 49 46 46 45 47 44 44 45
82 86 86 86 82 81 80 74 69 63 59 57 53 50 47 46 46 46 47 44 43 45
89 87 86 85 84 82 78 72 66 62 60 57 54 52 52 50 47 44 42 40 39 41
80 81 86 88 87 84 78 73 68 63 61 59 58 58 55 50 45 41 40 38 37 33
89 89 93 92 87 83 78 71 67 64 62 61 60 57 53 50 45 42 40 37 34 31
94 95 95 93 89 84 78 73 68 66 64 63 60 57 55 51 48 44 39 35 34 34
Wind_Direction_850mb
243 243 244 244 245 247 247 249 248 247 245 243 244 247 252 255 258 259 262 265 265 269
243 244 244 245 247 246 247 246 246 244 242 241 243 247 252 256 259 261 265 264 266 273
246 247 247 245 246 244 245 246 243 243 242 243 245 250 252 254 259 260 261 263 264 263
246 244 243 244 244 241 243 244 244 242 242 245 249 250 249 252 255 255 256 259 259 262
246 244 242 242 240 240 241 242 243 241 242 245 246 247 249 250 251 251 252 257 257 259
243 242 240 239 237 236 239 238 238 238 239 240 242 243 246 246 248 246 245 248 248 247
241 240 239 236 232 234 236 236 237 236 236 237 238 240 241 244 245 247 248 247 254 256
242 240 236 229 229 231 234 234 232 230 229 232 234 237 240 242 244 248 252 255 259 263
241 233 226 227 226 229 228 225 225 223 224 228 232 235 238 241 244 247 249 251 254 259
234 226 225 224 227 225 222 220 220 223 226 229 232 235 238 241 245 247 249 250 253 255
236 231 230 225 220 218 217 218 221 223 226 229 232 235 237 239 241 242 246 250 249 249
237 233 227 222 218 214 214 217 219 223 228 231 232 235 236 237 238 241 240 240 240 240
238 233 228 220 214 216 218 219 223 226 228 230 230 231 233 235 236 234 234 237 237 236
238 230 221 217 217 218 219 220 222 225 227 228 228 228 231 234 232 230 233 234 232 229